EHI
0 0 0 0 0 0 0 0 0 0 0 0 0 0 0 0 0 0 0 0 1 6 17 25 27 25 23 22 20 15 12 12 9 4 1 1 1 0 0 0 0 0 0 0 0 0 0 0 0
0 0 0 0 0 0 0 0 0 0 0 0 0 0 0 0 0 0 0 0 1 6 15 23 27 26 24 23 21 16 14 12 11 7 3 1 2 2 2 1 1 1 1 1 0 0 0 0 0
0 0 0 0 0 0 0 0 0 0 0 0 0 0 0 0 0 0 0 0 1 6 15 23 27 26 24 22 20 17 15 14 12 10 7 5 5 5 5 4 4 3 3 2 1 0 0 0 0
0 0 0 0 0 0 0 0 0 0 0 0 0 0 0 0 0 1 1 2 4 8 15 24 27 25 22 19 16 14 14 15 14 13 11 10 9 8 6 5 5 4 3 2 1 0 0 0 0
0 0 0 0 0 0 0 0 0 0 0 0 0 0 0 0 1 2 3 5 9 13 17 23 26 24 20 16 13 12 14 16 16 16 14 12 10 9 6 4 3 3 2 1 0 0 0 0 0
0 0 0 0 0 0 0 0 0 0 0 0 0 0 0 1 2 3 4 8 12 16 19 20 21 19 16 14 11 12 14 16 16 15 13 9 8 8 6 3 2 2 1 0 0 0 0 0 0
0 0 0 0 0 0 0 0 0 0 0 0 0 0 0 1 2 3 6 10 13 16 18 19 17 14 13 12 11 11 13 15 15 12 9 5 4 6 5 3 2 1 0 0 0 0 0 0 0
0 0 0 0 0 0 0 0 0 0 0 0 0 0 0 1 2 4 9 13 14 14 16 18 17 13 12 11 10 10 11 12 11 9 6 2 1 2 2 1 1 0 0 0 0 0 0 0 0
0 0 0 0 0 0 0 0 0 0 0 0 0 0 1 2 4 6 10 14 15 14 14 17 18 16 14 12 10 10 10 9 8 7 4 2 1 0 0 0 0 0 0 0 0 0 0 0 0
0 0 0 0 0 0 0 0 0 0 0 0 0 1 2 4 4 5 8 10 12 14 14 14 17 17 16 14 12 11 9 7 6 5 3 3 3 1 0 0 0 0 0 0 0 0 0 0 0
0 0 0 0 0 0 0 0 0 0 0 0 0 1 2 3 2 3 4 5 7 10 12 12 14 16 16 16 15 13 9 6 4 5 5 5 5 3 1 0 0 0 0 0 0 0 0 0 0
0 0 0 0 0 0 0 0 0 0 0 0 0 0 1 1 1 1 2 3 4 7 10 12 13 14 15 16 16 14 10 6 4 5 6 6 6 5 3 1 0 0 0 0 0 0 0 0 0
0 0 0 0 0 0 0 0 0 0 0 0 0 0 0 0 0 0 1 3 3 5 7 10 12 13 13 14 14 12 9 6 4 5 6 6 6 6 4 1 0 0 0 0 0 0 0 0 0
0 0 0 0 0 0 0 0 0 0 0 0 0 0 0 0 0 0 1 2 3 4 6 7 9 11 11 11 10 9 7 6 4 4 5 6 6 5 4 1 0 0 0 0 0 0 0 0 0
0 0 0 0 0 0 0 0 0 0 0 0 0 0 0 0 0 0 1 2 4 5 5 5 7 9 9 9 8 7 6 6 5 4 4 5 6 5 3 2 1 0 0 0 0 0 0 0 0
0 0 0 0 0 0 0 0 0 0 0 0 0 0 0 0 0 0 1 2 3 4 4 4 6 8 8 8 7 7 6 6 4 4 4 5 6 5 4 2 1 0 0 0 0 0 0 0 0
0 0 0 0 0 0 0 0 0 0 0 0 0 0 0 0 0 0 0 1 2 3 3 4 6 7 7 7 6 6 6 5 4 4 5 6 6 6 4 3 1 0 0 0 0 0 0 0 0
0 0 0 0 0 0 0 0 0 0 0 0 0 0 0 0 0 0 0 0 1 3 3 4 6 6 6 6 6 5 4 4 5 6 6 6 6 6 5 3 1 0 0 0 0 0 0 0 0
0 0 0 0 0 0 0 0 0 0 0 0 0 0 0 0 0 0 0 0 1 2 3 4 5 5 4 5 5 4 3 4 5 5 4 4 5 6 6 4 2 1 0 0 0 0 0 0 0
0 0 0 0 0 0 0 0 0 0 0 0 0 0 0 0 0 0 0 0 0 1 3 4 5 4 3 3 3 3 3 4 4 4 3 3 4 6 6 5 3 1 0 0 0 0 0 0 0
0 0 0 0 0 0 0 0 0 0 0 0 0 0 0 0 0 0 0 0 0 1 3 5 5 3 1 1 1 1 2 3 3 3 3 3 3 4 6 5 2 0 0 0 0 0 0 0 0
0 0 0 0 0 0 0 0 0 0 0 0 0 0 0 0 0 0 0 0 0 1 3 5 4 2 0 0 0 0 1 2 3 3 3 3 2 2 3 3 1 0 0 0 0 0 0 0 0
0 0 0 0 0 0 0 0 0 0 0 0 0 0 0 0 1 1 1 0 0 1 2 4 3 1 0 0 0 0 0 1 1 2 3 3 2 1 1 1 0 0 0 0 0 0 0 0 0
0 0 0 0 0 0 0 0 0 0 0 0 0 0 0 0 1 1 1 0 0 0 1 3 3 1 0 0 0 0 0 0 0 1 2 3 3 3 1 0 0 0 0 0 0 0 0 0 0
0 0 0 0 0 0 0 0 0 0 0 0 0 0 0 0 0 1 1 0 0 0 1 2 2 1 0 0 0 0 0 0 0 0 1 2 3 4 2 1 0 0 0 0 0 0 0 0 0
0 0 0 0 0 0 0 0 0 0 0 0 0 0 0 0 0 0 0 0 0 0 1 2 2 1 0 0 0 0 0 0 0 0 0 1 2 3 2 1 0 0 0 0 0 0 0 0 0
0 0 0 0 0 0 0 0 0 0 0 0 0 0 0 0 0 0 0 0 0 0 0 1 2 1 0 0 0 0 0 0 0 0 0 0 1 1 1 0 0 0 0 0 0 0 0 0 0
0 0 0 0 0 0 0 0 0 0 0 0 0 0 0 0 0 0 0 0 0 0 0 1 2 1 1 0 0 0 0 0 0 0 0 0 0 0 0 0 0 0 0 0 0 0 0 0 0
0 0 0 0 0 0 0 0 0 0 0 0 0 0 0 0 0 0 0 0 0 0 0 1 2 2 1 0 0 0 0 0 0 0 0 0 0 0 0 0 0 0 0 0 0 0 0 0 0
0 0 0 0 0 0 0 0 0 0 0 0 0 0 0 0 0 0 0 0 0 0 0 0 1 1 1 0 0 0 0 0 0 0 0 0 0 0 0 0 0 0 0 0 0 0 0 0 0
Wind_Speed
2 2 2 3 5 7 13 9 5 5 5 4 4 4 5 5 3 2 5 9 12 14 15 15 13 13 13 13 13 12 12 12 12 12 12 12 12 12 12 12 12 12 12 13 14 14 14 14 14
2 2 3 4 8 11 10 9 10 8 3 4 4 4 4 4 1 3 5 10 13 14 14 14 13 14 14 13 13 12 12 12 12 12 12 12 12 12 11 12 12 12 12 12 13 13 13 13 13
1 2 4 5 9 13 9 6 8 5 4 4 4 3 3 2 2 3 5 12 13 13 13 13 12 13 13 13 12 12 12 12 12 12 11 11 12 12 11 11 12 12 12 12 12 13 13 13 12
3 3 4 8 15 14 9 3 3 5 6 5 4 4 2 1 1 3 8 13 13 13 13 14 12 12 13 13 12 12 12 12 12 12 12 11 12 11 11 11 12 12 12 12 12 12 12 12 12
3 4 8 11 16 11 8 4 4 6 6 6 6 4 3 2 2 5 10 12 13 12 12 14 11 12 12 13 12 12 12 12 12 12 12 11 11 11 11 12 12 12 12 12 12 12 12 12 12
4 5 10 15 16 11 8 7 6 7 6 5 6 5 2 3 4 6 9 11 11 11 11 12 11 10 11 11 12 11 11 11 11 11 11 11 10 11 11 11 11 11 12 12 12 12 12 12 11
5 7 12 14 13 11 8 6 8 8 8 6 4 5 3 4 4 6 9 9 10 10 10 10 11 10 10 9 9 10 10 10 10 10 10 10 10 10 10 10 11 11 11 11 11 12 12 12 11
4 5 11 12 13 11 5 5 5 7 6 2 4 5 3 3 4 7 8 8 9 9 9 9 10 10 10 9 9 8 9 9 9 9 9 9 9 9 9 9 9 9 10 11 11 11 11 11 11
5 8 13 13 10 7 4 5 3 3 4 3 3 2 2 5 6 8 7 8 8 8 8 8 9 8 8 9 9 8 8 9 9 9 9 8 8 9 7 8 8 9 9 10 11 11 11 10 10
7 11 14 7 6 4 4 4 3 4 6 5 3 1 3 5 7 8 9 10 10 10 9 8 8 8 8 7 7 7 6 7 7 7 8 6 6 6 7 9 8 8 9 9 10 10 9 6 6
7 10 8 6 5 4 4 4 4 6 7 6 5 4 4 5 6 7 8 9 10 10 9 8 8 8 8 6 6 4 4 4 6 7 7 6 5 5 5 5 6 7 7 7 8 7 5 4 4
7 8 7 5 4 4 5 5 6 9 7 4 4 5 6 7 7 7 7 7 7 8 9 8 8 8 7 6 5 5 4 4 4 6 7 6 4 5 5 4 5 5 4 5 4 4 5 5 5
9 7 7 6 4 5 5 7 7 8 7 5 3 5 7 8 7 6 5 5 6 7 7 7 8 8 7 6 5 5 5 5 5 5 6 6 5 5 5 4 4 4 4 4 4 5 5 5 5
5 5 5 5 5 5 7 7 6 8 6 4 4 6 7 7 7 6 5 5 6 7 7 7 8 8 8 6 6 5 5 5 5 4 6 7 5 5 5 5 5 4 4 4 4 5 5 4 4
3 5 6 6 6 5 5 7 8 8 6 5 5 6 7 7 7 7 6 6 6 6 6 7 7 8 8 8 7 5 5 5 5 5 6 7 6 6 6 5 5 4 5 5 4 5 4 4 4
4 5 6 5 5 5 8 9 6 5 6 6 6 6 6 6 7 7 6 6 6 6 6 6 6 7 8 7 7 5 5 6 5 5 5 7 7 7 6 5 5 5 5 5 5 5 4 4 4
5 7 9 5 4 4 7 7 4 4 5 6 5 5 5 6 6 6 6 6 6 6 6 6 6 7 7 7 6 6 6 5 5 5 5 6 7 8 7 5 5 6 5 5 5 4 4 4 4
7 9 9 8 4 5 7 7 5 5 5 5 5 4 5 5 6 5 5 5 5 5 6 7 6 6 6 5 5 5 5 5 5 5 5 7 7 8 7 6 7 6 5 5 5 5 4 4 4
8 10 11 8 4 5 7 8 6 5 4 5 5 5 5 6 5 4 5 5 5 5 6 7 7 7 6 5 6 6 6 5 5 5 6 7 7 8 7 5 7 6 6 6 7 6 6 4 4
9 9 9 6 2 5 7 9 7 5 6 6 6 6 6 6 5 4 4 4 5 5 6 6 6 7 7 6 6 5 5 5 5 4 5 6 7 8 6 7 6 7 6 7 7 7 5 4 4
9 10 8 7 4 5 6 8 8 5 5 5 5 5 5 4 4 4 3 3 4 4 5 5 6 6 7 7 6 5 5 4 4 5 5 6 7 8 7 7 7 7 6 6 8 8 7 5 4
8 7 8 7 6 4 6 7 5 4 4 4 5 4 4 4 3 3 3 3 3 3 3 4 5 6 6 7 7 9 7 6 6 5 5 6 7 7 7 7 7 7 6 7 7 8 7 7 5
6 6 7 8 7 6 6 7 4 2 5 6 5 5 4 3 2 2 2 2 2 2 3 3 4 5 5 6 8 8 8 6 5 6 6 6 6 7 7 7 7 7 6 7 7 7 7 7 6
4 3 4 6 5 7 7 7 5 3 5 5 4 4 3 2 2 2 1 1 0 1 1 2 3 4 4 6 6 7 8 7 7 8 7 6 5 5 7 7 7 7 6 7 7 7 8 7 7
2 1 3 4 5 5 3 5 4 2 3 4 4 3 2 1 2 2 2 1 1 1 1 2 3 4 4 5 5 6 7 8 8 8 7 6 5 5 7 7 7 6 6 6 6 7 7 7 7
4 4 3 4 4 3 3 6 2 2 3 3 1 1 1 2 2 2 2 1 1 1 1 1 2 3 4 4 4 5 5 4 4 6 6 6 5 5 6 7 7 7 7 6 6 5 6 6 6
3 4 4 4 3 4 4 3 2 4 4 4 3 3 3 3 3 2 2 1 1 1 1 1 1 3 3 4 4 4 5 4 4 4 5 5 4 4 6 7 7 7 7 7 6 5 6 6 6
4 3 2 3 3 4 4 4 2 5 5 5 4 3 3 3 3 3 2 2 2 1 1 1 1 1 2 3 3 2 4 4 4 4 4 5 5 5 6 6 6 6 7 7 7 6 6 6 6
4 2 2 2 3 4 4 1 4 5 5 5 5 4 4 4 3 2 2 3 2 3 2 2 2 1 1 1 3 3 3 4 4 4 4 4 4 5 5 6 6 7 7 7 7 6 6 7 6
4 4 3 3 3 4 4 1 5 5 5 5 6 6 5 4 3 2 3 3 3 3 2 2 2 1 1 0 1 2 2 3 4 4 4 4 4 4 5 5 6 6 6 6 7 7 7 7 7
Wind_Direction
323 296 244 218 213 225 235 221 212 188 195 203 196 209 217 207 213 73 82 151 146 149 149 152 150 146 143 140 137 134 132 133 132 131 129 127 125 122 119 116 114 112 110 108 106 103 101 100 100
301 256 215 212 227 225 228 220 214 207 167 160 186 211 214 212 23 81 131 149 150 148 149 152 147 146 143 141 139 138 136 135 135 133 130 129 127 123 120 118 115 112 110 108 107 106 104 102 101
219 257 221 209 225 231 227 200 219 202 183 193 186 212 233 183 135 130 136 151 151 149 151 144 144 146 144 142 141 140 140 138 135 133 131 128 126 123 118 115 112 111 109 108 108 108 107 105 102
213 193 215 229 229 231 243 203 184 183 186 205 202 184 177 53 70 131 145 155 153 151 151 144 146 143 144 143 142 141 142 140 137 134 132 129 127 124 119 115 110 109 110 111 110 110 109 107 104
227 212 212 228 235 232 234 243 211 208 190 190 204 211 176 107 116 139 153 157 153 151 150 148 145 142 143 145 144 143 141 140 138 136 134 132 128 126 123 118 113 112 112 112 113 113 112 108 105
200 216 224 230 231 229 228 225 222 226 216 200 209 217 164 115 131 145 153 157 152 149 148 148 143 141 140 143 145 143 141 138 137 135 134 131 126 125 124 120 118 116 116 114 114 115 114 111 108
218 218 234 239 238 232 225 214 223 224 222 213 215 214 157 137 128 146 154 155 150 150 150 152 153 147 138 133 137 140 139 137 133 131 128 124 120 120 122 119 119 117 115 114 113 113 112 109 107
236 231 236 236 237 237 212 207 235 234 233 216 217 217 181 142 134 147 149 152 152 156 156 155 157 157 154 147 130 128 132 129 124 122 119 117 116 115 114 119 114 115 114 114 114 113 111 108 105
216 229 232 230 236 235 198 215 226 260 220 206 223 292 24 127 147 153 153 155 160 163 163 162 161 159 158 153 141 133 128 126 129 127 123 136 141 136 131 114 110 113 114 114 116 115 111 111 107
213 230 234 241 253 251 223 234 226 217 220 226 223 282 97 144 163 170 172 173 173 174 172 170 167 163 159 154 152 154 151 152 155 152 150 151 143 133 128 112 106 110 113 117 114 115 122 131 128
218 237 246 248 263 272 253 250 244 233 234 233 223 192 158 166 175 184 189 187 184 179 175 175 172 167 163 157 157 154 151 155 160 158 156 151 143 138 138 137 134 131 132 131 129 136 136 135 128
233 244 251 259 272 269 260 259 256 247 260 285 251 202 186 191 192 193 197 197 190 185 180 176 172 170 168 161 158 158 156 157 161 162 162 158 149 150 149 146 147 146 144 140 142 136 133 130 128
236 249 251 257 275 277 278 260 263 265 286 290 260 211 200 205 207 205 200 200 197 192 185 180 176 171 167 161 159 161 161 160 158 164 166 163 156 154 152 148 149 149 146 149 148 142 136 133 129
247 253 256 261 265 265 263 270 268 276 283 261 232 222 216 212 214 213 207 204 203 200 191 184 180 177 170 166 164 163 165 161 161 166 167 169 162 157 153 150 149 151 152 150 151 143 136 132 127
245 252 255 248 251 249 252 257 256 270 270 252 239 230 225 221 218 218 215 214 210 202 192 189 184 181 177 172 169 166 168 167 167 164 172 170 166 161 157 154 152 153 151 147 145 138 134 129 128
222 231 243 235 241 243 233 249 267 276 254 251 246 235 229 229 225 225 223 220 216 208 193 190 186 184 181 177 173 169 171 170 169 166 173 174 169 166 162 157 156 154 154 152 148 148 142 137 137
211 235 243 245 224 233 231 257 286 290 258 253 249 239 231 234 237 233 226 222 215 209 195 188 184 184 184 177 175 173 172 172 170 169 174 177 171 170 165 161 155 157 156 155 151 152 153 146 140
232 239 240 241 232 239 238 252 277 281 268 262 261 255 246 241 244 238 228 224 214 208 198 186 182 182 178 174 173 170 173 174 171 170 175 177 174 172 167 161 158 160 160 157 157 153 147 144 141
250 245 247 254 262 251 245 256 274 280 270 260 260 263 264 261 256 251 233 222 211 202 195 189 182 182 176 178 179 179 180 178 175 174 177 180 174 171 169 161 161 166 167 166 162 156 152 146 148
252 246 251 258 271 256 249 257 265 269 263 258 257 259 262 270 271 262 246 223 210 201 199 193 189 187 186 187 185 183 177 180 176 174 180 184 176 172 173 169 168 171 169 168 168 163 160 158 169
255 238 244 254 276 237 248 254 245 263 271 271 269 267 267 268 266 251 240 226 218 210 205 197 194 193 190 183 177 168 167 168 174 180 182 189 183 178 176 176 174 175 175 177 178 177 173 172 178
259 245 250 245 235 230 232 254 241 265 283 298 290 277 272 269 269 258 242 241 237 225 212 200 192 189 188 183 180 180 182 183 183 181 183 186 187 183 180 180 178 177 181 184 184 187 185 180 182
274 275 240 229 227 242 230 244 261 256 278 286 286 284 269 271 277 275 259 259 245 226 199 189 179 178 184 187 184 185 190 187 177 174 180 184 184 185 182 184 183 181 186 189 190 191 192 191 191
295 250 208 210 214 232 231 232 263 259 268 276 281 285 271 277 304 317 303 304 224 177 153 158 165 170 175 183 185 188 187 184 176 178 181 184 182 184 188 188 189 189 189 191 194 198 201 202 199
322 213 201 198 209 231 205 223 258 323 304 284 275 278 272 303 340 337 342 350 71 84 116 143 158 168 176 181 187 190 190 187 187 186 188 186 185 188 192 192 195 196 197 195 195 200 205 206 204
257 241 242 241 232 228 194 233 254 10 336 324 318 316 31 27 6 344 338 353 67 79 95 130 153 169 178 181 188 191 191 190 193 194 192 194 192 190 191 197 198 197 196 196 195 198 204 207 209
269 242 270 278 272 242 212 236 254 351 357 3 4 5 9 10 353 346 348 8 47 67 90 111 152 168 178 183 182 189 188 189 191 193 198 197 196 190 190 192 194 195 195 197 195 200 202 207 211
327 294 241 240 247 242 232 230 294 333 334 348 353 346 343 345 343 349 357 14 13 15 41 66 100 132 164 185 184 191 193 194 196 194 197 197 193 190 189 192 195 196 196 198 199 203 206 207 210
353 342 294 251 272 262 247 236 12 334 334 336 343 344 342 339 335 355 17 19 16 17 27 40 60 82 120 175 183 187 194 195 195 195 198 198 195 192 193 194 197 198 198 198 200 202 202 207 208
6 357 328 265 262 270 267 338 22 358 356 356 355 349 343 337 343 20 29 26 19 13 14 22 27 36 41 182 183 190 204 197 192 193 199 196 195 192 195 195 199 200 199 199 200 201 200 205 208